Location: Goettingen
(51.5300°N, 9.9433°E)
Time: 11:37:53
(UTC+02:00)

ISS - Pass Details

Date: 12 May 2025
Orbit: 416 x 419 km, 51.6° (Epoch: 18 May)

Event Time Altitude Azimuth Distance (km) Brightness Sun altitude
Rises 01:24:27 0° 280° (W) 2,361 0.2 -20.3°
Reaches altitude 10° 01:26:33 10° 279° (W) 1,496 -0.9 -20.3°
Enters shadow 01:28:07 25° 276° (W) 875 -2.2 -20.3°
